Location: Santa Cristina
(46.5667°N, 11.7167°E)
Time: 05:52:44
(UTC+00:00)

SL-8 Rocket - Pass Details

Date: 21 April 2021
Orbit: 958 x 989 km, 82.9° (Epoch: 15 May)

Event Time Altitude Azimuth Distance (km) Brightness Sun altitude
Rises 00:19:43 0° 351° (N) 3,695 7.9 -29.6°
Reaches altitude 10° 00:22:15 10° 352° (N) 2,747 7.1 -29.5°
Maximum altitude 00:28:34 85° 82° (E) 996 3.9 -29.1°
Enters shadow 00:28:55 80° 145° (SE) 1,006 3.9 -29.1°
